sat.trackr.live / text

‹ back to catalog

STARLINK-2334

NORAD 47792 · 2021-018F

PAYLOAD ACTIVE UNKNOWN

§ Identity

Operator
Country
US
Launch date
2021-03-11
Launch site
AFETR
Launch vehicle
Mass (kg)
RCS (m²)

Purposes: comms

External: N2YO · Heavens-Above · Gunter

§ Orbital elements

Epoch: 2026-05-24T23:29:20.504256Z

Period
94.01 min
Inclination
53.1577°
Eccentricity
0.0001277
Mean motion
15.31701372 rev/d
Perigee alt
469.9 km
Apogee alt
471.6 km
Semi-major
6,848.9 km
B*
9.3770e-5
RAAN
244.3203°
Arg perigee
72.3782°
Mean anomaly
287.7359°
Rev number
28,845

§ Raw data

STARLINK-23341 47792U 21018F   26144.97870954  .00002546  00000+0  93770-4 0  99932 47792  53.1577 244.3203 0001277  72.3782 287.7359 15.31701372288451

JSON: /api/v1/satellites/47792 · /tle

For live sub-satellite position, see the globe view (requires WebGL).

§ Visibility from observer

Set your observer location to see the next 7 days of passes ≥ 10°. The values pass through the URL so the page stays shareable.

No JS? Fill the form by hand. The geolocation button needs JavaScript.